Regional Weather Roundup
Issued by NWS Sterling, VA

Home | Current Version | Previous Version | Graphics & Text | Print | Product List | Glossary On
Versions: 1 2 3 4 5 6 7 8 9 10 11 12 13 14 15 16 17 18 19 20 21 22 23 24 25 26 27 28 29 30 31 32 33 34 35 36 37 38 39 40 41 42 43 44 45 46 47 48 49 50
000
ASUS41 KLWX 012210
RWRLWX

REGIONAL WEATHER ROUNDUP
NATIONAL WEATHER SERVICE BALTIMORE MD/WASHINGTON DC
600 PM EDT SAT AUG 01 2015

Note: "FAIR" indicates few or no clouds below 12,000 feet
with no significant weather and/or obstructions to visibility.
 TC=TEMPERATURE CELSIUS

 * =Non NWS site. Station does not report precipitation (e.g. rain,
    snow, etc.), thunder, or fog.

DCZ001-MDZ009-015-VAZ040>042-051-053>054-012300-
WASHINGTON METRO

CITY           SKY/WX    TMP DP  RH WIND       PRES   REMARKS
WASHINGTON NAT MOSUNNY   90  63  40 W10       29.84S HX  91
DULLES         MOSUNNY   86  59  39 NW9       29.85S
ANDREWS AFB    MOSUNNY   88  63  42 SW7       29.84S
COLLEGE PARK*  CLOUDY    88  59  37 W3        29.83S
LEESBURG*      SUNNY     88  61  40 W14       29.87R
MANASSAS*      SUNNY     84  66  54 SW7       29.85S
GAITHERSBURG*  MOSUNNY   84  61  45 NW6       29.89S

$$

MDZ006>007-011-014-012300-
BALTIMORE METRO

CITY           SKY/WX    TMP DP  RH WIND       PRES   REMARKS
BWI AIRPORT    MOSUNNY   88  59  37 NW9       29.83S
MD SCIENCE CTR   N/A     88  57  34 MISG      29.83S
MARTIN STATE   MOSUNNY   86  64  48 W9        29.84S
ANNAPOLIS      SUNNY     84  67  56 CALM      29.83S
FORT MEADE*    MOSUNNY   81  63  54 W6        29.86S

$$

MDZ012-015-019>023-012300-
MARYLAND EASTERN SHORE

CITY           SKY/WX    TMP DP  RH WIND       PRES   REMARKS
OCEAN CITY     SUNNY     86  71  60 SW14G22   29.83S HX  91
SALISBURY      SUNNY     87  65  47 W7        29.83S
BAY BRIDGE AP*   N/A     86  59  39 CALM      29.83S
CAMBRIDGE*     MOSUNNY   86  64  48 CALM      29.83S
EASTON*        MOSUNNY   86  66  51 NW6       29.87S

$$

MDZ017>025-012300-
SOUTHERN MARYLAND

CITY           SKY/WX    TMP DP  RH WIND       PRES   REMARKS
PATUXENT RIVER MOSUNNY   87  64  46 SW7       29.83S
ST INIGOES     SUNNY     87  66  49 SW7       29.82F
LEONARDTOWN*   SUNNY     88  59  37 CALM      29.85S

$$

MDZ003>005-012300-
NORTH CENTRAL MARYLAND

CITY           SKY/WX    TMP DP  RH WIND       PRES   REMARKS
FREDERICK*     NOT AVBL
HAGERSTOWN APT MOSUNNY   87  48  25 W15       29.87R
WESTMINSTER*   SUNNY     86  55  35 W7        29.87S

$$

MDZ501>502-012300-
WESTERN MARYLAND

CITY           SKY/WX    TMP DP  RH WIND       PRES   REMARKS
OAKLAND*       SUNNY     72  59  64 W8        30.02S
CUMBERLAND*    MOSUNNY   82  52  34 W7        29.94R

$$

VAZ025>031-012300-
SHENANDOAH VALLEY

CITY           SKY/WX    TMP DP  RH WIND       PRES   REMARKS
WINCHESTER*    MOSUNNY   88  52  29 W13G18    29.89R
FRONT ROYAL*   FAIR      82  59  44 NW8       29.87S
LURAY*         FAIR      90  54  29 W9        29.89S
NEW MARKET*    FAIR      84  57  39 NW7       29.88S
STAUNTON*      MOSUNNY   87  53  31 W3        29.93S
WAYNESBORO*    FAIR      83  59  43 CALM      29.93S

$$

WVZ021-048>050-054>055-012300-
EASTERN WEST VIRGINIA PANHANDLE

CITY           SKY/WX    TMP DP  RH WIND       PRES   REMARKS
MARTINSBURG    PTSUNNY   84  52  33 NW9       29.87S
PETERSBURG*    MOSUNNY  N/A N/A N/A W12       29.93S

$$

VAZ036>039-050-012300-
CENTRAL FOOTHILLS

CITY           SKY/WX    TMP DP  RH WIND       PRES   REMARKS
CHARLOTTESVILL MOSUNNY   87  61  41 W5        29.87S
CULPEPER*      MOSUNNY   84  69  60 CALM      29.86S
ORANGE*        SUNNY     90  63  40 SW8       29.87F HX  90
GORDONSVILLE*  FAIR      88  63  42 SW6       29.85S
WARRENTON*     FAIR      86  71  59 SE3       29.85S HX  91

$$

VAZ055>057-012300-
NORTH AND CENTRAL PIEDMONT

CITY           SKY/WX    TMP DP  RH WIND       PRES   REMARKS
FREDERICKSBRG* MOSUNNY   90  67  47 W5        29.83S HX  92
STAFFORD*      PTSUNNY   82  65  56 N6        29.89R

$$

NCZ024-NYZ072-PAZ021-071-VAZ022-071-012300-
OTHER REGIONAL OBSERVATIONS

CITY           SKY/WX    TMP DP  RH WIND       PRES   REMARKS
NEW YORK CITY  PTSUNNY   86  56  35 VRB6      29.80S
PHILADELPHIA   MOSUNNY   88  57  34 W16       29.82S
PITTSBURGH     PTSUNNY   80  50  34 W16       29.92R
ROANOKE        MOSUNNY   88  54  31 N14       29.94S
RICHMOND       MOSUNNY   92  62  36 SW12      29.84S HX  92
RALEIGH        MOSUNNY   91  59  33 SW5       29.88S HX  90

$$

ANZ530>537-012300-
MARINE OBSERVATIONS

STATION/POSITION TIME  TEMP    WIND        PRES
                       AIR SEA DIR/SP/G
                 (UTC) (F)     (DEG/KT/KT) (MB)
THOMAS PT LIGHT  NOT AVBL
BALT KEY BRIDGE  2100   86     270/ 10/ 13 1009.9F
COVE POINT       2100   85     140/  2/  4 1010.9F
LEWISETTA        2100   89 86  230/  5/  6 1009.9F
SOLOMONS ISLAND  2100      83                N/A
PINEY POINT      2100          260/  5/  8   N/A

$$



USA.gov is the U.S. government's official web portal to all federal, state and local government web resources and services.